Showing default

COSMOS 2268, 22999

Orbit data source: Space-Track

COSMOS 2268, 22999 is a payload satellite owned by VKS (CIS) in LEO that was launched on Sat, 12 Feb 1994 UTC via a TSIKLON-3 launch vehicle from the Plesetsk Missile And Space Complex (PKMTR). Payloads include a variety of satellites, spacecraft, and rockets equipped with specific instruments for various scientific and technological missions. These include communications satellites like Starlink; space stations such as the ISS; scientific satellites like the Hubble; Earth observation satellites from companies like Planet Labs, Umbra, and HawkEye 360; GPS; miniature CubeSats for education and research; and military/defense satellites.

Loading next visibility...
COSMOS 2268 details
Identifier
22999, 1994-011A
Orbit
LEO
Last TLE update15 hours ago
Origin
Flag of CISVKS (CIS)
ManufacturerNPO PM
MissionDefense Communications
Bus & MotorSTRELA-3, Unknown motor
Mass225 kg wet, 225 kg dry
Launch date (UTC)
1994-02-12 (31 years ago)
Launch vehicle
TSIKLON-3
Launch site
Plesetsk Missile And Space Complex (PKMTR)
Object type
Payload
Rocket body
Debris
Shape & HBRCyl, 1.6 m
Radar Cross Section1.257 m², Large (>1 m²)

Expand to show TLE details & history

TLE from 15 hours ago
0 COSMOS 2268
1 22999U 94011A   25035.65501757  .00000030  00000-0  11075-3 0  9997
2 22999  82.5777 297.4140 0009160 246.6764 125.2472 12.61210102426255
Epoch: 2025-02-04T15:43Z
Definitive object data (Epoch: 2025-02-04T15:43:13.518Z)
Latitude11.86648°
Longitude-71.88869°
Altitude1,424.058 km
Speed7.148 km/s
True Right ascension19h 55m 53s
True Declination11° 48' 12"
Sunlit
Object was in daylight at TLE epoch
Visualization TLE readout
Latitude-23.00802°
Longitude-77.00418°
Altitude1,426.624 km
Speed7.147 km/s
Apparent Right ascension20h 04m 52s
Apparent Declination-30° 45' 38"
Sunlit
Object is in daylight
Visualization observer readout
Local Sidereal Time08:48:12
Azimuth47.248° ENE
Elevation-77.295°
Doppler factor1
Orbital elements
Apogee altitude1,422.415 km
Perigee altitude1,408.137 km
Semi-major axis7,793.413 km
Eccentricity0.000916
Inclination82.5777°
RAAN297.414°
Arg. of periapsis246.6764°
True anomaly125.33287°
Mean anomaly125.2472°
Eccentric anomaly125.29004°
Mean motion3.15465 °/min
BSTAR0.00011075
Orbital period114.12 mins
Loading maneuver chart data...
Loading historical data...
Loading historical data...
Loading historical data...
Loading historical data...
Loading historical data...
Loading historical data...
Loading historical data...

COSMOS 2268 Visibility forecast

Observer location: undefined°, undefined

Span
Click to sort rows by Start time (UTC) header in descending order
Start Az.
Max El. time (UTC)
Max El. Az.
Max El.
End time (UTC)
End Az.
10 mins2025-02-05 16:32:58.507Z120.457° SE2025-02-05 16:36:58.507Z85.533° E22.56°2025-02-05 16:42:58.507Z35.455° NE
15 mins2025-02-05 18:24:58.507Z200.86° SSW2025-02-05 18:31:58.507Z291.118° WNW42.381°2025-02-05 18:39:58.507Z2.405° NNE
4 mins2025-02-05 20:26:58.507Z290.037° WNW2025-02-05 20:28:58.507Z304.653° NW11.579°2025-02-05 20:30:58.507Z319° NNW
14 mins2025-02-06 04:26:58.507Z4.838° NNE2025-02-06 04:33:58.507Z81.061° E38.308°2025-02-06 04:40:58.507Z149.946° SSE
12 mins2025-02-06 06:22:58.507Z326.743° NNW2025-02-06 06:27:58.507Z282.063° WNW27.641°2025-02-06 06:34:58.507Z219.777° SW
|